When you browse on this site, cookies collect data to enhance your experience and personalize the content and advertising you see.
Visit our Privacy Policy to learn more. By continuing to use the site, you agree to this use of cookies and data.
  • In Sweden
  • List of Countries
  • For 7 days
  • Water Temperature
  • Weather Map
  • Weather Widgets
  • user-avatar
    Login

    Hourly Weather Agramunt

    Today, 25 February, Tuesday

    Time Temperature Precipitation Wind Pressure Humidity
    00:00 +10°C° 0 mm 1 mps 729 mmHg 59%
    01:00 +10°C° 0 mm 1 mps 728 mmHg 59%
    02:00 +9°C° 0 mm 1 mps 728 mmHg 59%
    03:00 +9°C° 0 mm 1 mps 727 mmHg 59%
    04:00 +9°C° 0 mm 1 mps 727 mmHg 59%
    05:00 +8°C° 0 mm 1 mps 727 mmHg 60%
    06:00 +8°C° 0 mm 1 mps 727 mmHg 60%
    07:00 +9°C° 0 mm 1 mps 727 mmHg 58%
    08:00 +10°C° 0 mm 1 mps 727 mmHg 56%
    09:00 +12°C° 0 mm 1 mps 727 mmHg 54%
    10:00 +13°C° 0 mm 2 mps 727 mmHg 52%
    11:00 +13°C° 0 mm 3 mps 727 mmHg 49%
    12:00 +14°C° 0 mm 4 mps 727 mmHg 47%
    13:00 +15°C° 0 mm 5 mps 727 mmHg 46%
    14:00 +16°C° 0 mm 5 mps 726 mmHg 45%
    15:00 +17°C° 0 mm 6 mps 726 mmHg 43%
    16:00 +16°C° 0 mm 5 mps 726 mmHg 48%
    17:00 +14°C° 0 mm 5 mps 726 mmHg 54%
    18:00 +12°C° 0 mm 5 mps 726 mmHg 59%
    19:00 +11°C° 0 mm 4 mps 726 mmHg 62%
    20:00 +10°C° 0 mm 3 mps 726 mmHg 66%
    21:00 +9°C° 0 mm 2 mps 727 mmHg 69%
    22:00 +8°C° 0 mm 2 mps 726 mmHg 69%
    23:00 +8°C° 0 mm 3 mps 726 mmHg 70%

    Tomorrow, 26 February, Wednesday

    Time Temperature Precipitation Wind Pressure Humidity
    00:00 +8°C° 0 mm 3 mps 726 mmHg 70%
    01:00 +7°C° 0 mm 3 mps 726 mmHg 69%
    02:00 +6°C° 0 mm 4 mps 726 mmHg 67%
    03:00 +6°C° 0 mm 4 mps 726 mmHg 65%
    04:00 +5°C° 0 mm 4 mps 726 mmHg 67%
    05:00 +5°C° 0 mm 4 mps 726 mmHg 69%
    06:00 +4°C° 0 mm 4 mps 726 mmHg 71%
    07:00 +5°C° 0 mm 4 mps 726 mmHg 66%
    08:00 +7°C° 0 mm 5 mps 726 mmHg 61%
    09:00 +8°C° 0 mm 5 mps 727 mmHg 55%
    10:00 +10°C° 0 mm 6 mps 727 mmHg 50%
    11:00 +11°C° 0 mm 7 mps 727 mmHg 44%
    12:00 +14°C° 0 mm 7 mps 727 mmHg 38%
    13:00 +13°C° 0 mm 8 mps 727 mmHg 37%
    14:00 +13°C° 0 mm 8 mps 727 mmHg 36%
    15:00 +13°C° 0 mm 8 mps 727 mmHg 35%
    16:00 +11°C° 0 mm 7 mps 727 mmHg 39%
    17:00 +9°C° 0 mm 6 mps 727 mmHg 43%
    18:00 +7°C° 0 mm 6 mps 728 mmHg 48%
    19:00 +6°C° 0 mm 4 mps 728 mmHg 51%
    20:00 +5°C° 0 mm 3 mps 729 mmHg 54%
    21:00 +5°C° 0 mm 2 mps 729 mmHg 58%
    22:00 +5°C° 0 mm 2 mps 729 mmHg 59%
    23:00 +5°C° 0 mm 1 mps 729 mmHg 61%

    Day after tomorrow, 27 February, Thursday

    Time Temperature Precipitation Wind Pressure Humidity
    00:00 +5°C° 0 mm 1 mps 729 mmHg 63%
    01:00 +5°C° 0 mm 1 mps 729 mmHg 64%
    02:00 +5°C° 0 mm 1 mps 729 mmHg 65%
    03:00 +5°C° 0 mm 1 mps 728 mmHg 66%
    04:00 +4°C° 0 mm 1 mps 728 mmHg 68%
    05:00 +4°C° 0 mm 1 mps 728 mmHg 71%
    06:00 +3°C° 0 mm 1 mps 728 mmHg 73%
    07:00 +4°C° 0 mm 1 mps 728 mmHg 68%
    08:00 +6°C° 0 mm 1 mps 728 mmHg 63%
    09:00 +7°C° 0 mm 1 mps 728 mmHg 58%
    10:00 +8°C° 0 mm 3 mps 728 mmHg 55%
    11:00 +10°C° 0 mm 4 mps 728 mmHg 52%
    12:00 +10°C° 0 mm 6 mps 727 mmHg 49%
    13:00 +12°C° 0 mm 7 mps 727 mmHg 46%
    14:00 +14°C° 0 mm 7 mps 727 mmHg 42%
    15:00 +15°C° 0 mm 8 mps 726 mmHg 39%
    16:00 +14°C° 0 mm 7 mps 726 mmHg 44%
    17:00 +12°C° 0 mm 7 mps 727 mmHg 48%
    18:00 +10°C° 0 mm 6 mps 727 mmHg 53%
    19:00 +10°C° 0 mm 5 mps 727 mmHg 57%
    20:00 +10°C° 0 mm 4 mps 727 mmHg 61%
    21:00 +8°C° 0 mm 4 mps 728 mmHg 65%
    22:00 +8°C° 0 mm 3 mps 728 mmHg 68%
    23:00 +8°C° 0 mm 2 mps 728 mmHg 72%

    28 February, Friday

    Time Temperature Precipitation Wind Pressure Humidity
    00:00 +7°C° 0 mm 2 mps 728 mmHg 76%
    01:00 +7°C° 0 mm 2 mps 728 mmHg 79%
    02:00 +8°C° 0 mm 1 mps 728 mmHg 81%
    03:00 +7°C° 0 mm 1 mps 728 mmHg 84%
    04:00 +7°C° 0 mm 1 mps 728 mmHg 85%
    05:00 +7°C° 0 mm 1 mps 728 mmHg 85%
    06:00 +7°C° 0 mm 1 mps 729 mmHg 86%
    07:00 +8°C° 0 mm 1 mps 729 mmHg 81%
    08:00 +10°C° 0 mm 1 mps 729 mmHg 75%
    09:00 +12°C° 0 mm 1 mps 730 mmHg 69%
    10:00 +13°C° 0 mm 1 mps 730 mmHg 65%
    11:00 +14°C° 0 mm 2 mps 730 mmHg 61%
    12:00 +16°C° 0 mm 2 mps 730 mmHg 57%
    13:00 +16°C° 0 mm 2 mps 729 mmHg 56%
    14:00 +17°C° 0 mm 2 mps 729 mmHg 54%
    15:00 +17°C° 0 mm 2 mps 728 mmHg 53%
    16:00 +15°C° 0 mm 2 mps 728 mmHg 62%
    17:00 +14°C° 0 mm 2 mps 728 mmHg 70%
    18:00 +12°C° 0 mm 2 mps 728 mmHg 78%
    19:00 +10°C° 0 mm 2 mps 728 mmHg 82%
    20:00 +10°C° 0 mm 2 mps 728 mmHg 87%
    21:00 +9°C° 0 mm 2 mps 728 mmHg 91%
    22:00 +9°C° 0 mm 2 mps 727 mmHg 91%
    23:00 +8°C° 0 mm 2 mps 727 mmHg 91%

    29 February, Saturday

    Time Temperature Precipitation Wind Pressure Humidity
    00:00 +9°C° 0 mm 1 mps 726 mmHg 92%
    01:00 +9°C° 0 mm 1 mps 725 mmHg 91%
    02:00 +9°C° 0 mm 1 mps 725 mmHg 90%
    03:00 +8°C° 0 mm 1 mps 724 mmHg 90%
    04:00 +8°C° 0 mm 1 mps 723 mmHg 89%
    05:00 +8°C° 0 mm 1 mps 723 mmHg 88%
    06:00 +8°C° 0 mm 1 mps 722 mmHg 87%
    07:00 +9°C° 0 mm 1 mps 723 mmHg 81%
    08:00 +10°C° 0 mm 2 mps 723 mmHg 74%
    09:00 +12°C° 0 mm 3 mps 723 mmHg 67%
    10:00 +13°C° 0 mm 4 mps 723 mmHg 61%
    11:00 +14°C° 0 mm 5 mps 722 mmHg 56%
    12:00 +16°C° 0 mm 6 mps 722 mmHg 50%
    13:00 +16°C° 0 mm 7 mps 722 mmHg 50%
    14:00 +16°C° 0 mm 7 mps 722 mmHg 50%
    15:00 +16°C° 0 mm 7 mps 722 mmHg 50%
    16:00 +15°C° 0 mm 6 mps 722 mmHg 56%
    17:00 +13°C° 0 mm 5 mps 723 mmHg 62%
    18:00 +12°C° 0 mm 4 mps 723 mmHg 69%
    19:00 +11°C° 0 mm 4 mps 724 mmHg 70%
    20:00 +10°C° 0 mm 3 mps 724 mmHg 71%
    21:00 +9°C° 0 mm 3 mps 725 mmHg 72%
    22:00 +8°C° 0 mm 3 mps 725 mmHg 71%
    23:00 +6°C° 0 mm 4 mps 726 mmHg 69%

    1 March, Sunday

    Time Temperature Precipitation Wind Pressure Humidity
    00:00 +5°C° 0 mm 4 mps 726 mmHg 68%
    01:00 +5°C° 0 mm 3 mps 726 mmHg 69%
    02:00 +4°C° 0 mm 3 mps 726 mmHg 70%
    03:00 +4°C° 0 mm 3 mps 726 mmHg 72%
    04:00 +4°C° 0 mm 2 mps 726 mmHg 74%
    05:00 +4°C° 0 mm 2 mps 726 mmHg 77%
    06:00 +3°C° 0 mm 2 mps 726 mmHg 79%
    07:00 +4°C° 0 mm 2 mps 727 mmHg 74%
    08:00 +6°C° 0 mm 2 mps 727 mmHg 69%
    09:00 +7°C° 0 mm 2 mps 727 mmHg 64%
    10:00 +8°C° 0 mm 3 mps 726 mmHg 60%
    11:00 +10°C° 0 mm 4 mps 726 mmHg 55%
    12:00 +10°C° 0 mm 5 mps 726 mmHg 51%
    13:00 +12°C° 0 mm 5 mps 726 mmHg 49%
    14:00 +12°C° 0 mm 5 mps 725 mmHg 47%
    15:00 +13°C° 0 mm 5 mps 725 mmHg 45%
    16:00 +12°C° 0 mm 5 mps 725 mmHg 51%
    17:00 +10°C° 0 mm 4 mps 725 mmHg 56%
    18:00 +9°C° 0 mm 3 mps 725 mmHg 61%
    19:00 +8°C° 0 mm 2 mps 725 mmHg 63%
    20:00 +8°C° 0 mm 2 mps 725 mmHg 66%
    21:00 +7°C° 0 mm 2 mps 725 mmHg 68%
    22:00 +8°C° 0 mm 1 mps 725 mmHg 69%
    23:00 +8°C° 0 mm 1 mps 724 mmHg 70%
    Show more